RH
74 74 75 73 73 73 71 71 74 73 72 70 70 72 74 74 74 74 74 76 76 76 78 79 79 80 47 27 21 31 48 41 31 29 28 25 21 23 22 24 28 27 33 36 38 37 35
75 75 75 74 75 77 76 73 74 75 73 71 70 71 72 73 72 73 74 75 75 77 79 78 78 77 32 21 34 32 32 32 30 26 28 26 23 23 28 31 27 34 34 36 37 37 37
78 79 76 75 76 78 79 77 76 77 75 73 73 74 74 72 72 73 74 75 75 78 80 77 75 42 32 20 30 30 30 30 32 27 28 31 27 24 28 33 33 33 34 35 36 36 37
76 76 79 78 78 79 80 79 79 78 78 77 77 77 76 75 73 73 76 77 79 83 81 75 71 34 28 31 30 28 27 28 29 27 27 28 26 28 30 29 28 29 31 31 32 36 40
80 80 78 79 78 78 80 80 81 81 79 80 80 81 79 78 75 77 80 79 79 80 72 70 38 34 25 39 30 29 29 26 28 28 26 21 26 30 31 29 26 31 21 28 28 34 37
83 82 84 86 83 81 81 82 82 83 81 83 83 84 83 81 81 78 83 76 70 62 41 28 24 28 28 28 30 32 28 31 27 28 27 25 26 27 29 24 17 18 24 21 22 35 37
86 86 89 89 89 85 83 83 84 83 84 85 86 87 84 85 82 78 62 31 20 26 29 24 21 24 30 32 33 32 29 31 26 22 23 28 22 22 19 20 14 13 17 18 19 32 36
89 92 94 94 92 91 88 87 88 88 87 88 89 89 84 81 79 76 44 34 56 55 38 31 30 32 32 32 31 33 30 26 28 22 26 25 21 14 22 27 21 19 17 17 22 40 38
86 86 89 91 95 94 94 92 91 90 89 90 91 90 86 83 78 47 45 59 62 61 33 22 35 33 32 33 29 29 32 28 25 27 26 19 20 21 20 29 26 22 19 17 18 40 40
79 82 86 85 87 93 94 95 94 92 92 91 91 90 86 78 45 43 42 57 60 57 27 22 37 37 36 37 31 34 32 30 33 25 28 22 22 25 26 21 21 21 20 22 26 26 24
76 76 79 86 88 89 91 95 96 95 93 92 91 88 80 64 40 31 45 60 60 40 59 30 37 30 38 36 39 36 31 33 34 30 29 25 35 36 34 25 22 20 27 26 28 28 33
78 78 78 78 81 87 91 92 93 97 96 95 92 87 80 54 40 41 59 59 43 32 66 25 39 37 38 38 37 33 30 26 29 33 30 28 32 33 28 34 26 32 29 31 31 28 42
79 78 79 79 78 79 87 92 91 92 94 97 96 87 79 60 36 52 56 40 34 42 20 22 38 39 36 33 37 35 32 34 33 56 36 32 32 35 35 34 34 29 26 40 39 47 31
76 80 80 80 80 78 80 90 90 91 93 94 97 85 79 57 64 66 53 37 53 28 21 32 40 40 37 30 32 37 34 29 31 30 33 45 42 36 33 30 31 31 24 33 31 36 27
73 78 82 82 80 79 81 81 85 89 91 95 90 76 68 59 67 57 50 66 54 33 19 28 36 37 30 34 29 35 35 29 21 26 26 29 25 36 38 33 29 33 34 23 25 32 33
73 74 78 81 80 80 81 80 79 88 82 93 97 92 76 64 66 68 80 80 44 27 30 38 35 25 25 28 34 36 32 25 26 23 17 17 22 36 33 32 33 32 24 32 30 44 34
76 73 73 74 80 84 83 82 78 82 87 91 96 97 78 65 70 79 96 76 53 34 30 43 47 40 30 29 33 32 27 25 27 30 23 18 24 33 35 39 30 36 31 33 32 34 39
77 78 73 74 81 84 81 83 81 78 89 93 94 89 79 77 95 98 93 73 56 42 45 45 54 55 59 42 42 39 31 24 29 30 29 21 23 25 31 28 27 28 25 26 34 37 34
76 76 76 78 80 82 84 83 82 78 88 97 93 90 82 77 94 87 73 70 60 54 55 60 81 65 58 64 88 70 55 40 38 39 37 29 25 30 28 29 28 36 33 31 26 36 38
72 78 76 80 82 81 84 85 85 80 76 98 99 98 96 90 91 89 88 97 98 81 73 64 91 83 97 97 63 87 69 44 48 47 55 45 44 28 32 26 26 32 33 35 33 49 33
72 75 76 78 83 81 82 85 84 82 81 98 99 92 82 98 98 96 98 100 98 92 80 86 98 95 85 100 95 92 74 68 58 57 53 57 59 47 33 34 31 30 28 34 39 34 40
66 69 76 78 80 80 80 82 84 83 84 99 97 92 94 86 87 97 100 100 87 75 90 94 98 76 86 99 95 97 87 91 87 80 83 84 74 53 49 40 62 50 37 30 38 35 32
67 67 70 78 80 83 80 81 83 82 84 93 88 89 94 75 93 99 84 72 82 88 79 77 78 98 97 90 93 96 96 95 84 94 96 97 95 94 88 59 88 94 79 56 36 43 45
67 68 68 75 77 82 83 80 82 81 85 90 89 95 94 86 80 75 71 79 81 75 95 84 93 100 100 98 100 100 100 100 100 99 98 97 96 97 92 95 96 65 51 64 65 66 61
64 66 68 72 77 79 84 81 82 83 84 96 90 92 96 100 96 93 87 81 71 83 97 100 96 100 100 100 94 96 89 96 91 95 98 98 97 96 95 91 74 69 60 57 62 78 90
64 65 70 73 79 81 84 82 81 81 78 90 94 88 91 100 83 72 76 81 92 93 92 100 98 100 100 94 93 94 85 91 91 91 86 96 96 96 95 95 89 51 43 44 68 89 80
61 66 72 75 80 81 84 81 82 81 78 88 97 87 90 100 95 83 91 93 97 100 99 92 95 96 97 89 89 86 86 94 92 91 86 92 95 94 94 94 86 73 45 43 97 88 58
66 77 77 81 83 83 82 80 79 77 77 93 99 96 95 98 95 96 98 100 100 100 98 98 96 93 89 92 89 85 92 92 93 92 92 90 92 90 94 95 91 47 40 88 69 60 53
68 77 80 80 78 78 77 75 73 73 76 86 100 95 96 100 98 91 96 98 99 99 95 99 98 93 91 92 93 94 91 90 92 89 86 91 93 92 94 92 93 52 48 48 48 48 48
Wind_Speed
7 8 9 10 11 12 12 13 13 13 15 17 18 18 18 19 19 18 16 17 17 15 11 11 12 11 4 4 5 1 7 6 1 3 2 2 3 3 4 5 3 2 5 3 4 6 8
5 6 8 9 10 11 12 13 13 13 14 14 13 14 16 17 18 19 19 18 14 16 15 11 8 10 3 6 3 2 5 2 3 2 3 0 2 2 7 3 1 3 7 7 5 7 6
6 6 6 6 8 10 11 11 12 14 14 15 15 15 14 14 15 17 20 21 19 14 14 12 9 3 4 8 0 2 2 1 3 1 4 2 2 1 5 6 5 8 6 4 6 7 5
9 9 7 8 9 8 9 10 11 12 14 15 16 17 16 16 16 15 16 18 19 15 9 8 7 3 6 2 0 1 0 2 2 1 3 3 4 7 2 10 4 4 3 6 9 10 3
8 9 9 10 9 8 8 8 10 12 13 14 16 17 18 18 19 18 18 17 13 8 6 4 2 3 6 2 3 1 1 2 1 1 3 4 3 4 4 6 4 5 6 10 5 12 6
10 9 10 10 10 9 10 10 9 10 10 13 15 17 19 19 18 20 22 15 1 2 1 2 1 4 3 2 2 2 1 1 2 3 3 2 3 5 5 9 10 8 7 6 8 11 12
11 11 11 10 9 10 10 10 9 10 10 10 11 12 16 18 19 21 12 3 1 3 1 5 2 4 1 1 1 1 1 3 2 3 7 2 7 13 18 17 4 3 7 8 4 6 10
14 13 12 10 10 10 10 10 10 10 9 10 11 11 15 17 18 18 5 5 3 3 9 9 10 5 2 1 3 4 3 7 6 9 5 5 14 11 2 9 9 8 9 11 2 5 10
14 14 15 15 12 11 11 10 10 10 10 9 10 12 15 18 16 2 5 4 3 3 6 3 2 1 1 5 5 5 8 4 6 8 12 14 0 4 9 9 12 13 16 11 6 5 9
13 14 14 14 15 15 13 12 12 10 9 8 8 10 15 22 1 2 4 3 4 2 5 4 3 2 3 1 4 1 2 3 4 8 6 10 3 7 9 11 13 14 12 8 8 6 8
11 12 12 13 13 13 14 15 12 11 10 8 7 6 10 11 6 3 4 4 2 3 7 3 2 2 3 4 4 1 2 2 6 7 6 3 7 9 9 7 15 2 4 7 6 10 5
12 13 13 14 14 15 14 13 14 12 10 10 7 2 6 1 1 3 7 7 3 2 9 2 1 2 3 4 4 0 2 1 1 3 5 4 1 4 2 3 7 12 8 5 3 4 8
11 10 11 11 12 12 12 9 9 10 11 11 8 2 2 0 2 5 5 4 1 6 2 0 2 2 2 4 5 8 6 8 7 6 11 4 8 2 2 5 4 7 10 4 6 6 9
13 10 10 10 11 12 12 11 12 10 10 10 6 4 2 2 2 3 2 2 7 4 8 1 1 2 6 7 6 7 6 9 14 6 1 7 7 14 14 7 7 18 11 7 8 8 1
13 13 11 10 11 12 12 13 13 11 11 4 8 1 1 2 2 2 3 3 7 7 5 3 2 6 6 5 3 7 10 7 9 21 13 9 8 2 2 1 3 8 12 3 6 2 5
11 11 12 12 11 11 12 13 14 14 13 6 1 1 1 3 3 1 2 7 4 4 3 1 8 5 10 2 5 8 11 5 8 19 19 5 9 4 5 3 4 6 3 5 5 7 9
13 11 11 13 12 10 11 13 13 14 15 7 1 3 2 2 0 1 5 7 6 7 5 4 8 11 14 6 9 6 6 3 8 6 11 7 7 5 3 14 19 9 8 7 4 5 5
15 13 13 11 10 9 11 12 11 11 1 2 1 5 2 1 3 1 3 5 3 4 2 4 5 13 18 15 13 14 13 11 4 5 11 10 5 13 14 1 5 11 13 16 9 9 7
17 15 14 13 11 11 12 13 10 9 6 1 4 1 1 3 6 7 4 5 4 1 8 2 4 11 7 9 8 19 18 3 3 3 4 3 9 10 7 4 2 9 14 10 12 3 18
17 16 15 14 12 10 11 12 12 9 8 3 2 3 2 2 2 6 5 4 4 4 8 8 6 6 5 8 15 9 10 5 2 4 7 4 7 14 17 12 3 9 13 20 16 10 13
18 18 17 15 14 12 9 10 11 8 10 3 4 5 5 5 5 6 4 2 5 7 7 6 3 11 12 7 10 20 21 23 15 6 2 3 10 9 6 5 5 5 6 19 26 30 16
17 17 17 17 16 14 12 11 9 10 6 3 4 3 1 3 5 7 7 5 8 9 6 5 11 16 11 10 14 19 15 5 10 3 8 7 11 8 15 5 6 7 10 9 20 20 21
18 19 18 17 16 14 13 11 10 11 5 4 1 0 2 4 4 4 5 9 7 5 9 15 13 10 16 17 10 15 17 13 9 7 11 8 6 6 17 14 6 13 19 18 11 9 14
19 18 19 19 17 14 15 13 12 13 11 3 2 1 5 9 10 12 11 11 9 13 14 8 7 8 3 4 5 6 5 9 11 12 8 8 9 4 8 5 9 3 2 4 8 4 10
20 20 21 19 19 15 16 14 13 14 14 6 2 4 4 3 5 7 12 13 12 8 10 10 8 1 3 3 3 5 3 4 9 5 6 3 6 4 5 8 8 6 4 3 5 4 2
21 21 21 19 19 18 17 14 13 12 13 7 5 4 4 2 6 11 8 6 5 5 5 5 1 1 3 2 3 4 4 4 4 3 0 4 1 3 4 6 8 4 2 2 3 6 3
22 21 22 21 20 18 16 13 14 11 8 4 2 10 4 3 4 5 6 3 1 2 4 2 2 3 2 3 4 4 5 2 5 4 4 4 3 10 6 6 5 3 4 0 5 3 2
22 22 21 23 20 16 15 12 12 10 10 5 1 3 4 5 4 4 4 5 3 2 3 2 2 3 3 4 3 2 3 2 5 1 3 4 5 3 4 4 7 3 3 3 4 2 4
21 21 17 9 8 9 11 13 15 13 11 8 3 1 3 1 2 2 3 3 3 2 2 3 3 3 4 3 3 3 3 2 2 4 1 2 4 4 3 3 3 5 5 4 4 5 6
Wind_Direction
12 16 12 15 17 15 14 14 12 12 10 5 3 1 356 350 344 340 339 337 330 324 321 317 323 331 306 248 261 84 323 324 124 138 97 258 228 158 156 129 141 139 135 75 106 123 122
346 352 360 6 5 7 4 5 2 1 1 1 3 1 356 351 346 339 335 330 331 324 317 313 320 328 272 251 104 329 329 285 51 127 115 241 217 125 103 85 289 96 115 121 151 140 143
301 311 329 343 346 351 359 357 354 352 352 352 353 352 351 348 345 341 333 328 319 314 310 306 319 330 251 263 78 323 359 6 327 161 133 119 138 241 131 117 128 136 125 148 171 174 155
319 318 308 314 320 329 343 348 346 347 347 348 349 345 342 340 334 330 323 317 310 301 292 292 313 274 256 116 311 244 287 100 335 32 97 106 116 99 54 120 118 175 203 206 161 175 151
306 313 308 305 312 315 322 333 338 340 341 345 344 341 337 336 330 323 313 302 302 293 272 284 250 274 269 118 212 157 304 158 136 77 66 101 80 82 148 174 177 202 237 219 186 201 154
290 290 294 298 311 316 312 316 322 327 333 339 340 338 333 330 327 323 314 303 56 308 127 156 162 281 184 234 154 148 85 126 162 152 146 154 115 172 176 199 229 207 218 220 225 188 207
280 285 285 288 289 296 302 303 303 311 318 325 331 330 331 328 329 326 328 332 4 129 186 237 226 270 255 68 257 180 76 154 146 211 209 161 208 211 207 212 245 184 221 228 202 168 204
6 334 291 278 278 278 282 286 289 293 304 314 321 326 328 326 328 325 317 43 40 355 300 242 237 256 251 293 267 205 193 197 196 214 159 188 234 236 112 191 199 203 226 234 176 165 217
5 1 2 353 317 294 289 281 282 285 292 304 315 325 330 324 322 35 26 52 314 215 271 295 191 223 282 195 254 201 191 175 211 208 208 230 30 165 179 177 199 220 228 223 255 165 233
356 353 351 354 349 340 301 289 276 275 279 290 310 331 341 324 240 356 106 324 289 272 283 235 159 110 117 333 254 16 226 255 194 240 206 246 183 177 189 211 203 227 215 216 189 202 249
348 348 346 346 342 343 351 324 281 280 277 281 294 332 3 22 330 330 343 297 261 208 307 72 153 71 120 154 340 121 350 224 238 187 196 213 191 187 208 219 188 228 151 187 200 228 273
338 339 342 342 342 343 340 356 349 305 291 283 279 314 349 306 277 324 307 293 205 190 247 278 142 175 169 177 166 222 283 277 337 198 229 269 344 241 267 97 191 140 114 97 117 212 244
324 327 329 333 333 332 334 339 345 349 336 295 268 165 20 261 302 325 316 258 233 218 328 270 291 219 260 200 204 185 182 206 214 187 224 197 211 178 183 137 125 203 169 190 212 208 249
320 309 315 322 325 328 330 332 335 341 329 326 280 131 139 214 264 333 331 9 214 243 259 96 158 186 227 177 220 195 198 228 224 237 181 213 241 179 181 226 203 198 215 209 231 215 203
317 324 304 312 319 325 329 331 328 334 328 356 144 112 200 323 269 191 98 218 212 206 269 286 245 237 230 217 231 197 224 246 221 195 212 203 234 175 200 170 196 176 218 316 290 132 265
305 317 330 318 310 318 324 327 331 321 316 186 167 168 186 326 313 77 140 223 242 258 313 278 277 257 273 274 216 208 190 205 235 199 218 229 258 188 151 178 196 243 138 179 215 232 238
293 295 306 310 320 313 316 319 326 327 327 167 214 256 83 92 222 122 222 217 239 251 196 239 266 275 269 284 223 239 256 255 226 194 207 216 222 131 166 209 195 174 197 222 277 237 259
293 287 288 288 293 303 301 303 315 318 97 255 273 251 87 171 120 274 197 194 278 244 241 244 261 256 264 267 279 270 259 247 30 173 186 215 266 239 207 123 330 251 227 195 209 194 238
302 291 282 280 282 293 300 299 298 307 220 345 250 152 317 271 237 227 239 256 235 245 243 183 256 233 287 264 247 230 256 90 60 298 5 286 228 240 209 201 144 217 212 238 259 339 234
304 300 295 279 270 278 294 295 286 293 284 201 271 213 144 208 340 290 256 217 219 239 243 251 246 265 252 245 238 263 248 216 140 158 351 20 293 258 254 272 130 204 203 207 201 228 247
305 299 293 288 283 268 273 290 289 279 287 164 217 235 174 180 211 208 177 252 220 263 228 195 233 219 239 259 250 245 253 255 253 201 155 166 246 271 313 315 297 294 240 208 209 226 220
295 299 296 287 275 263 266 277 287 275 280 230 264 236 257 262 141 177 192 198 259 263 221 240 241 278 271 240 251 287 299 243 239 153 207 159 260 256 272 237 3 295 269 239 236 248 252
293 295 298 288 283 268 252 257 264 273 231 241 188 203 229 250 187 192 213 231 234 209 225 252 278 290 280 273 264 281 274 262 250 191 184 182 211 210 255 252 302 273 242 228 214 229 229
290 291 289 283 277 275 251 251 249 259 227 243 180 143 241 249 235 236 250 228 245 262 257 268 270 262 324 323 292 255 259 262 229 217 189 187 194 200 266 139 224 294 45 8 250 271 234
290 289 289 282 279 275 257 248 253 252 254 220 195 196 231 255 232 233 244 248 274 278 265 269 258 289 316 276 286 290 242 253 234 224 188 246 182 204 230 216 312 242 177 172 191 239 329
287 288 286 280 270 273 254 245 246 255 279 222 205 208 236 248 232 261 268 229 253 241 252 219 163 220 243 250 240 248 257 287 233 218 206 180 174 223 159 248 235 64 103 126 224 255 139
287 288 283 278 277 268 246 241 241 246 268 241 234 197 195 203 220 205 236 230 203 289 283 246 190 196 244 224 244 256 251 321 270 257 161 171 190 213 206 236 281 74 104 86 222 19 137
287 291 281 277 266 253 239 246 237 236 242 195 158 247 198 213 166 199 170 167 201 179 258 79 259 174 199 233 253 260 276 352 289 16 209 216 189 195 167 212 246 9 111 265 351 21 117
288 289 285 264 262 254 251 256 257 251 245 183 176 153 89 347 65 59 49 34 18 19 152 210 315 200 225 242 238 281 269 233 275 279 357 291 356 327 300 28 71 29 27 22 358 115 119